Simultaneous Nadir Overpasses (SNOs) Predictions

Prediction of SNOs between GOES-16 and METOP-B Satellite Orbit:

Table of predicted SNOs for the next 14.0 days since TLE Epoch: 6/12/2020
Index Date Time (GOES-16) GOES-16 Lat,Lon METOP-B Lat,Lon Distance(km) Time Diff (sec)
1 06/13/2020 02:40:35 -0.02, -75.16 -0.62, -77.78 299.39 80
2 06/14/2020 02:22:35 -0.02, -75.16 0.51, -72.79 270.61 80
3 06/15/2020 14:38:47 0.02, -75.20 0.49, -77.35 244.74 80
4 06/16/2020 14:20:47 0.02, -75.21 -0.64, -72.36 325.63 80
5 06/18/2020 02:39:46 -0.02, -75.20 -0.43, -76.95 199.05 80
6 06/19/2020 02:16:27 -0.02, -75.22 0.70, -71.95 371.38 80
7 06/20/2020 14:35:18 0.01, -75.26 0.30, -76.52 143.61 80
8 06/21/2020 14:17:19 0.01, -75.27 -0.82, -71.53 426.89 80
9 06/23/2020 02:36:19 -0.00, -75.27 -0.17, -76.13 97.39 80
10 06/24/2020 02:12:59 -0.00, -75.28 0.90, -71.12 473.31 80
11 06/25/2020 14:31:51 0.00, -75.33 0.05, -75.70 41.21 80




NCC Satellite Simultaneous Nadir Overpasses (SNOs) Prediction Service
